Location: Lussas
(44.6119°N, 4.4726°E)
Time: 23:34:21
(UTC+00:00)

SAR-Lupe-1 - Pass Details

Date: 22 April 2021
Orbit: 482 x 483 km, 98.2° (Epoch: 30 March)

Event Time Altitude Azimuth Distance (km) Brightness Sun altitude
Rises 19:28:40 0° 5° (N) 2,559 8.1 -9.4°
Reaches altitude 10° 19:30:49 10° 358° (N) 1,674 7.2 -9.8°
Maximum altitude 19:34:10 38° 289° (WNW) 760 5.8 -10.3°
Drops below altitude 10° 19:37:29 10° 221° (SW) 1,660 6.9 -10.8°
Sets 19:39:37 0° 213° (SSW) 2,535 7.8 -11.1°
